Voltar ao catálogo

STARLINK-3972

AtivoComunicaçõesVLEO
NORAD 52669·PAYLOAD·🇺🇸 United States

Lançado May 18, 2022 de Cape Canaveral Space Force Station

Loading…

Próximas Passagens (próximas 24 horas)

TLE

AtualizadoSource: CelesTrak SupGP

Época: Sep 15, 2026, 02:39 UTC

1 52669C 22053P   26258.11090278  .00023282  00000+0  68815-3 0  2586
2 52669  53.1593  12.7325 0000892  64.7430 336.6623 15.34367291    10

Acompanhe STARLINK-3972 em tempo real com AllMySat

Download on the App Store